[[{"header":{"parameterUnit":"m.s-1","parameterCategory":1,"la1":30.2991,"la2":30.254,"lo1":-89.0895,"lo2":-89.0444,"dy":0.0017,"dx":0.0017,"nx":28,"ny":28,"refTime":"2023-10-25T21:00:00:Z","depth":0,"parameterNumber":2,"parameterNumberName":"U-component_of_WINDS"},"data":[0,0,0,0,0,0,0,0,0,0,0,0,0,0,0,0,0,0,0,0,0,0,0,0,0,0,0,0,0,0,0,0,0,0,0,0,0,0,0,0,0,0,0,0,0,0,0,0,0,0,0,0,0,0,0,0,0,0,-4.9541,-4.9542,0,-4.9592,-4.9593,-4.9593,-4.9516,-4.9513,-4.9511,-4.9508,-4.9558,-4.9561,-4.9565,0,0,0,0,0,0,0,0,0,0,0,0,0,-4.9377,-4.9381,-4.9541,-4.9542,-4.9543,-4.9592,-4.9593,-4.9593,-4.9517,-4.9513,-4.951,-4.9507,-4.9556,-4.9561,-4.9565,0,0,0,0,0,0,0,0,0,0,0,0,0,-4.944,-4.9382,-4.9541,-4.951,-4.9508,-4.9592,-4.9593,-4.9593,-4.9517,-4.9513,-4.9509,-4.9505,-4.9555,-4.956,-4.9566,-4.9682,0,0,-4.9584,-4.9586,0,0,0,0,0,0,0,0,-4.9437,-4.9446,-4.9514,-4.9513,-4.951,-4.9544,-4.9553,-4.9623,-4.9518,-4.9514,-4.9508,-4.9503,-4.9556,-4.9561,-4.958,-4.9684,-4.9686,-4.9584,-4.9587,-4.959,-4.9592,0,0,0,0,0,0,0,-4.9433,-4.9444,-4.9561,-4.9515,-4.9513,-4.9494,-4.9498,-4.9566,-4.9557,-4.9514,-4.9508,-4.9515,-4.9554,-4.9574,-4.958,-4.9687,-4.9584,-4.9589,-4.9592,-4.9595,-4.9891,-4.9895,0,0,0,0,0,0,-4.9432,-4.9441,-4.956,-4.9563,-4.9463,-4.95,-4.9505,-4.9537,-4.9556,-4.9555,-4.9519,-4.9512,-4.9567,-4.9574,-4.9582,-4.9719,-4.959,-4.9595,-4.9599,-4.9887,-4.9892,-4.9897,0,0,0,0,0,0,-4.9429,-4.9444,-4.9557,-4.95,-4.9513,-4.9507,-4.9544,-4.954,-4.956,-4.956,-4.9557,-4.9541,-4.9564,-4.9574,-4.9658,-4.972,-4.9598,-4.9603,-4.9881,-4.9888,-4.9894,-4.9995,0,0,0,0,0,0,-4.9425,-4.9443,-4.9486,-4.9502,-4.9517,-4.9633,-4.9547,-4.9544,-4.957,-4.9562,-4.958,-4.9579,-4.9561,-4.965,-4.9664,-4.9725,-4.9607,-4.9876,-4.9884,-4.9892,-4.9986,-5.0004,-5.002,0,0,0,0,0,-4.9419,-4.9512,-4.9489,-4.9504,-4.9571,-4.9637,-4.9645,-4.9624,-4.9576,-4.962,-4.962,-4.9579,-4.9711,-4.9659,-4.9674,-4.9738,-4.9872,-4.9882,-4.9892,-4.9978,-5.0001,-5.0019,0,0,0,0,0,0,-4.9502,-4.9513,-4.9488,-4.9589,-4.9613,-4.9624,-4.9678,-4.9648,-4.9685,-4.9675,-4.9646,-4.9651,-4.9742,-4.9748,-4.969,-4.9853,-4.9783,-4.9797,-4.9844,-4.9865,-4.9882,-4.9878,-4.9612,0,0,0,0,0,-4.9532,-4.9585,-4.9592,-4.968,-4.9694,-4.9685,-4.9712,-4.9694,-4.9717,-4.9726,-4.9733,-4.9757,-4.9804,-4.9835,-4.9878,-4.9987,-4.9991,-5.0039,-5.0056,-5.007,-5.0081,-5.0141,-5.0163,-4.993,-4.9929,-4.9929,0,0,-4.9594,-4.9607,-4.9642,-4.9697,-4.9713,-4.9769,-4.9693,-4.9754,-4.9795,-4.9735,-4.9816,-4.9822,-4.9847,-4.9945,-4.9988,-4.9953,-5.0147,-5.0083,-5.0094,-5.0098,-5.0154,-5.0176,-5.0196,-4.9936,-4.9935,-4.9934,0,0,-4.9736,-4.9751,-4.9827,-4.9846,-4.9873,-4.9867,-4.9885,-4.9902,-4.9904,-4.9985,-4.9942,-4.9991,-5.0072,-5.0092,-5.0113,-5.0267,-5.0231,-5.0282,-5.0369,-5.0428,-5.0446,-5.0463,-5.0518,-5.0538,-5.0294,-5.0294,-5.0294,0,-4.981,-4.9892,-4.9869,-4.9935,-4.9961,-4.9912,-4.9989,-5.0008,-5.0047,-5.0066,-5.0027,-5.0131,-5.0144,-5.0246,-5.0284,-5.0303,-5.0323,-5.0279,-5.0446,-5.0462,-5.0476,-5.0529,-5.055,-5.03,-5.0299,-5.0299,-5.0298,0,-4.9982,-5.004,-5.0098,-5.0139,-5.0172,-5.0242,-5.0231,-5.0267,-5.0247,-5.0245,-5.0329,-5.0344,-5.039,-5.0414,-5.0394,-5.0514,-5.0492,-5.045,-5.038,-5.0505,-5.0554,-5.0574,-5.0309,-5.0307,-5.0305,-5.0303,0,0,-5.0173,-5.0204,-5.0226,-5.0245,-5.0273,-5.0317,-5.0387,-5.0434,-5.0465,-5.0495,-5.0553,-5.0625,-5.0587,-5.0611,-5.0594,-5.0645,-5.0768,-5.0597,-5.0597,-5.0628,-5.0902,-5.0933,-5.0957,-5.0745,-5.0748,-5.0751,-5.09,0,-5.0315,-5.0435,-5.0419,-5.0535,-5.0589,-5.0545,-5.0606,-5.063,-5.0631,-5.0677,-5.0678,-5.073,-5.0676,-5.069,-5.074,-5.0742,-5.0822,-5.0731,-5.0798,-5.08,-5.0792,-5.0982,-5.1014,-5.1154,-5.0919,-5.0922,-5.0925,0,-5.0495,-5.0534,-5.0656,-5.0678,-5.07,-5.0754,-5.0797,-5.0842,-5.0869,-5.0866,-5.0896,-5.087,-5.094,-5.087,-5.0967,-5.0906,-5.0932,-5.0938,-5.0943,-5.0947,-5.0869,-5.0991,-5.1197,-5.1218,-5.0954,-5.0952,-5.095,0,-5.0623,-5.0706,-5.079,-5.0807,-5.0835,-5.0875,-5.0888,-5.0911,-5.0941,-5.0979,-5.0999,-5.1044,-5.1068,-5.1104,-5.1092,-5.1042,-5.1192,-5.112,-5.1191,-5.1192,-5.1223,-5.1221,-5.1436,-5.1242,-5.1242,-5.1241,-5.1241,0,-5.0782,-5.0858,-5.0848,-5.0899,-5.0984,-5.0965,-5.105,-5.1057,-5.1079,-5.1132,-5.1097,-5.1147,-5.1128,-5.1177,-5.1168,-5.125,-5.1261,-5.1261,-5.1257,-5.1264,-5.1264,-5.1279,-5.1269,-5.1247,-5.1246,-5.1245,-5.1244,0,-5.0938,-5.0934,-5.1023,-5.1043,-5.105,-5.1112,-5.1129,-5.1178,-5.1178,-5.1245,-5.126,-5.126,-5.1316,-5.1308,-5.137,-5.1364,-5.1466,-5.1451,-5.1458,-5.1454,-5.1525,-5.1518,-5.1757,-5.1788,-5.1575,-5.1577,-5.1578,0,-5.1039,-5.1097,-5.1125,-5.1158,-5.1175,-5.1229,-5.126,-5.1245,-5.1279,-5.1317,-5.1361,-5.1415,-5.1457,-5.1549,-5.1554,-5.1603,-5.1588,-5.1669,-5.1595,-5.16,-5.1589,-5.1585,-5.1591,-5.1682,-5.1685,-5.1687,-5.1688,0,-5.1219,-5.1215,-5.1262,-5.131,-5.1349,-5.1385,-5.1418,-5.1447,-5.1435,-5.1476,-5.1534,-5.1567,-5.1632,-5.1686,-5.1732,-5.1745,-5.1716,-5.1712,-5.1731,-5.1737,-5.1738,-5.1739,-5.1497,-5.1706,-5.1704,-5.1703,-5.1702,-5.1701,-5.135,-5.14,-5.1429,-5.1483,-5.1507,-5.1539,-5.1586,-5.1594,-5.1642,-5.1695,-5.1683,-5.175,-5.1777,-5.1836,-5.1855,-5.1907,-5.1877,-5.1904,-5.1911,-5.1918,-5.1927,-5.1732,-5.1915,-5.1915,-5.1914,-5.1914,-5.1913,0,-5.1528,-5.1545,-5.1595,-5.1644,-5.1687,-5.1657,-5.1693,-5.1731,-5.179,-5.1819,-5.1862,-5.193,-5.1983,-5.1995,-5.2045,-5.2085,-5.2072,-5.2098,-5.2095,-5.2099,-5.195,-5.1929,-5.2108,-5.2108,-5.2108,-5.2108,-5.2108,-5.2107,-5.1625,-5.1709,-5.171,-5.1806,-5.1822,-5.1887,-5.191,-5.194,-5.1964,-5.2042,-5.2087,-5.2094,-5.2117,-5.2169,-5.2217,-5.2219,-5.2239,-5.2271,-5.2268,-5.2128,-5.2109,-5.209,-5.207,-5.2276,-5.2276,-5.2412,-5.2413,-5.2414]},{"header":{"parameterUnit":"m.s-1","parameterCategory":1,"la1":30.2991,"la2":30.254,"lo1":-89.0895,"lo2":-89.0444,"dy":0.0017,"dx":0.0017,"nx":28,"ny":28,"refTime":"2023-10-25T21:00:00:Z","depth":0,"parameterNumber":3,"parameterNumberName":"V-component_of_WINDS"},"data":[0,0,0,0,0,0,0,0,0,0,0,0,0,0,0,0,0,0,0,0,0,0,0,0,0,0,0,0,0,0,0,0,0,0,0,0,0,0,0,0,0,0,0,0,0,0,0,0,0,0,0,0,0,0,0,0,0,0,2.2,2.2,0,2.2039,2.204,2.204,2.2018,2.2017,2.2016,2.2014,2.2051,2.2053,2.2055,0,0,0,0,0,0,0,0,0,0,0,0,0,2.1904,2.1905,2.2,2.2,2.2001,2.2039,2.204,2.204,2.2018,2.2017,2.2015,2.2014,2.2051,2.2053,2.2056,0,0,0,0,0,0,0,0,0,0,0,0,0,2.1944,2.1906,2.2,2.1994,2.1994,2.2039,2.204,2.204,2.2018,2.2017,2.2015,2.2013,2.205,2.2053,2.2056,2.2107,0,0,2.2065,2.2066,0,0,0,0,0,0,0,0,2.1942,2.1948,2.1995,2.1995,2.1995,2.2022,2.2019,2.2063,2.2019,2.2009,2.2014,2.2013,2.2043,2.2046,2.2057,2.2109,2.211,2.2065,2.2067,2.2068,2.2069,0,0,0,0,0,0,0,2.1939,2.1946,2.2015,2.1995,2.1995,2.199,2.1993,2.2027,2.2034,2.201,2.2008,2.2013,2.2042,2.2054,2.2058,2.2111,2.2065,2.2068,2.207,2.2071,2.221,2.2212,0,0,0,0,0,0,2.1937,2.1944,2.2014,2.2016,2.1964,2.1993,2.1997,2.2015,2.2034,2.2035,2.2015,2.2012,2.205,2.2054,2.2059,2.2123,2.2068,2.2071,2.2073,2.2208,2.2211,2.2213,0,0,0,0,0,0,2.1935,2.1944,2.2012,2.198,2.1988,2.1996,2.2016,2.2016,2.2028,2.2038,2.2039,2.2026,2.2049,2.2055,2.2096,2.2124,2.2073,2.2075,2.2206,2.2209,2.2212,2.2249,0,0,0,0,0,0,2.1932,2.1943,2.1963,2.1981,2.199,2.205,2.2018,2.2018,2.2034,2.2031,2.2048,2.205,2.2048,2.2092,2.2099,2.2127,2.2078,2.2204,2.2207,2.2211,2.2245,2.2253,2.2259,0,0,0,0,0,2.1929,2.197,2.1964,2.1972,2.2015,2.2051,2.2057,2.2055,2.2036,2.2056,2.2063,2.2049,2.2119,2.2096,2.2104,2.2133,2.2202,2.2206,2.221,2.2242,2.2251,2.2259,0,0,0,0,0,0,2.1953,2.1972,2.1965,2.2014,2.2031,2.2047,2.2072,2.2064,2.2086,2.2082,2.2078,2.2082,2.2126,2.2133,2.2108,2.2185,2.2158,2.2164,2.2179,2.2188,2.2195,2.2192,2.208,0,0,0,0,0,2.1964,2.1993,2.2008,2.2049,2.2058,2.2064,2.208,2.2077,2.2095,2.2102,2.2111,2.2128,2.2154,2.2171,2.2195,2.2246,2.2251,2.227,2.2277,2.2283,2.2288,2.2318,2.2328,2.2227,2.2227,2.2226,0,0,2.1987,2.2001,2.2019,2.2054,2.2068,2.2098,2.207,2.2102,2.2124,2.2106,2.2147,2.2155,2.2173,2.2221,2.2242,2.2228,2.2317,2.2288,2.2292,2.2295,2.2324,2.2333,2.2342,2.2229,2.2229,2.2229,0,0,2.2045,2.2057,2.2095,2.211,2.2131,2.2135,2.2144,2.2162,2.2168,2.2209,2.2197,2.2223,2.2267,2.2282,2.2295,2.2362,2.235,2.2369,2.2405,2.2435,2.2443,2.245,2.2475,2.2484,2.2375,2.2375,2.2375,0,2.207,2.2115,2.2114,2.2149,2.2165,2.2152,2.219,2.2204,2.2232,2.2244,2.2228,2.2286,2.2297,2.2349,2.2366,2.2376,2.2387,2.2367,2.2442,2.2449,2.2455,2.248,2.2489,2.2377,2.2377,2.2377,2.2376,0,2.2147,2.2178,2.2206,2.2236,2.2255,2.2291,2.2296,2.2315,2.2312,2.2318,2.2361,2.2375,2.2403,2.2415,2.241,2.2467,2.2458,2.2442,2.2414,2.2467,2.2491,2.25,2.238,2.238,2.2379,2.2378,0,0,2.2219,2.225,2.226,2.2275,2.23,2.2324,2.236,2.2389,2.2407,2.2427,2.2458,2.2497,2.2484,2.2499,2.2496,2.2522,2.2577,2.2503,2.2504,2.2518,2.2642,2.2655,2.2666,2.257,2.2571,2.2573,2.2642,0,2.2279,2.2344,2.2345,2.2404,2.2435,2.2424,2.2456,2.2474,2.2481,2.2507,2.2514,2.2543,2.2522,2.2532,2.2557,2.2565,2.2602,2.256,2.2599,2.26,2.2596,2.2678,2.2691,2.2755,2.265,2.2652,2.2653,0,2.2358,2.2384,2.2446,2.2469,2.2482,2.2511,2.2539,2.2565,2.2586,2.2589,2.2608,2.2602,2.2639,2.261,2.2662,2.2633,2.2649,2.2656,2.2658,2.2663,2.263,2.2686,2.2775,2.2785,2.2667,2.2665,2.2664,0,2.2407,2.2457,2.2502,2.2514,2.2541,2.2562,2.2574,2.2594,2.2613,2.2637,2.265,2.2678,2.2693,2.2715,2.2717,2.2696,2.277,2.2741,2.2775,2.2775,2.2791,2.279,2.2886,2.2799,2.2799,2.2799,2.2799,0,2.2475,2.2514,2.2525,2.2552,2.2597,2.2598,2.2642,2.2652,2.267,2.27,2.2691,2.2719,2.272,2.2748,2.275,2.2794,2.28,2.2805,2.2805,2.2806,2.2806,2.2817,2.2813,2.2802,2.2801,2.28,2.28,0,2.2537,2.2546,2.2594,2.2617,2.2624,2.2656,2.2675,2.2702,2.2709,2.2747,2.2756,2.2766,2.28,2.2805,2.2842,2.2844,2.2897,2.2892,2.2891,2.2891,2.2925,2.2923,2.3032,2.3048,2.295,2.2951,2.2951,0,2.2581,2.2611,2.2639,2.2659,2.2673,2.2705,2.2725,2.2728,2.2749,2.2778,2.2801,2.2834,2.2861,2.2915,2.2926,2.2956,2.2952,2.2988,2.2956,2.2958,2.2955,2.2954,2.2957,2.2995,2.2996,2.2997,2.2997,0,2.2658,2.2661,2.2691,2.2724,2.2749,2.2774,2.2797,2.2814,2.282,2.2844,2.288,2.2901,2.2942,2.2975,2.3005,2.3017,2.3009,2.3008,2.3017,2.302,2.3019,2.3022,2.291,2.3005,2.3004,2.3004,2.3003,2.3003,2.2713,2.2741,2.2766,2.28,2.2819,2.2842,2.2869,2.2881,2.2911,2.2946,2.2946,2.2985,2.3008,2.3048,2.3062,2.3093,2.3081,2.3094,2.3098,2.3102,2.3106,2.3013,2.3098,2.3098,2.3097,2.3097,2.3097,0,2.2792,2.2808,2.284,2.2875,2.2902,2.2894,2.292,2.2944,2.2979,2.3001,2.3029,2.3071,2.3104,2.3118,2.3151,2.3173,2.317,2.3181,2.318,2.3184,2.3114,2.3103,2.3183,2.3183,2.3183,2.3183,2.3183,2.3183,2.2836,2.2884,2.2891,2.2948,2.2963,2.3004,2.302,2.3041,2.306,2.3108,2.3136,2.3146,2.3166,2.32,2.323,2.3234,2.3247,2.326,2.3262,2.3197,2.3188,2.318,2.317,2.3263,2.3263,2.3329,2.333,2.3331]}]]